Voltar ao catálogo

STARLINK-37713

AtivoComunicaçõesSSO
NORAD 69212·PAYLOAD·🇺🇸 United States

Lançado May 26, 2026 de Vandenberg Space Force Base

Loading…

Próximas Passagens (próximas 24 horas)

TLE

AtualizadoSource: CelesTrak SupGP

Época: Sep 15, 2026, 04:03 UTC

1 69212C 26115B   26258.16923611 -.00067120  00000+0 -20839-2 0  2586
2 69212  97.2833 274.2743 0001429  89.7035 112.9439 15.33468000    11

Acompanhe STARLINK-37713 em tempo real com AllMySat

Download on the App Store